Terminal Aerodrome Forecast
Issued by NWS

Home | Current Version | Previous Version | Text Only | Print | Product List | Glossary On
Versions: 1 2 3 4 5 6 7 8 9 10 11 12 13 14 15
000
FTUS43 KUNR 260900 AAA
TAFGCC
TAF AMD
KGCC 260959Z 2610/2706 36009KT P6SM OVC010
      TEMPO 2610/2614 P6SM OVC006=

USA.gov is the U.S. government's official web portal to all federal, state and local government web resources and services.